GFSNW_500_temp_111.txt.gz
Temp
-23 -23 -24 -24 -24 -24 -24 -24 -24 -25 -25 -26 -26 -26 -27 -27 -27 -27 -27 -27 -26 -26 -26 -25 -25 -25 -25 -24 -24 -23 -23 -23 -22 -22 -22 -22 -22 -22 -22 -22 -21 -21 -21 -19
-24 -24 -24 -24 -24 -24 -24 -24 -26 -26 -26 -27 -27 -27 -27 -27 -27 -28 -27 -27 -27 -27 -26 -26 -25 -25 -26 -25 -24 -24 -24 -24 -23 -23 -23 -23 -23 -23 -22 -22 -22 -22 -21 -20
-24 -24 -24 -24 -24 -24 -24 -26 -26 -27 -27 -27 -28 -28 -28 -28 -28 -28 -28 -27 -28 -28 -28 -28 -27 -27 -27 -25 -25 -25 -25 -25 -24 -24 -24 -24 -24 -23 -24 -23 -23 -22 -22 -20
-25 -24 -25 -25 -25 -24 -26 -26 -26 -27 -27 -28 -28 -28 -29 -29 -29 -28 -29 -29 -29 -28 -28 -28 -28 -27 -27 -26 -26 -26 -26 -24 -24 -24 -25 -24 -24 -24 -24 -24 -24 -24 -21 -21
-25 -25 -25 -25 -25 -25 -26 -26 -27 -27 -28 -29 -28 -29 -30 -30 -30 -30 -29 -29 -29 -28 -28 -28 -28 -28 -28 -27 -27 -27 -27 -26 -25 -25 -25 -25 -25 -24 -24 -24 -23 -23 -22 -21
-26 -25 -25 -25 -26 -26 -26 -27 -27 -28 -29 -29 -29 -29 -30 -30 -30 -30 -29 -29 -29 -28 -28 -28 -29 -28 -27 -27 -27 -27 -26 -26 -26 -25 -25 -25 -24 -24 -24 -24 -23 -23 -22 -21
-26 -26 -26 -26 -26 -26 -27 -27 -28 -29 -30 -30 -30 -30 -30 -30 -30 -30 -30 -29 -29 -29 -28 -28 -28 -28 -28 -27 -27 -26 -26 -26 -25 -25 -25 -25 -24 -24 -25 -24 -23 -22 -21 -21
-26 -26 -26 -26 -26 -26 -27 -27 -28 -29 -30 -31 -30 -31 -31 -31 -30 -30 -29 -29 -29 -29 -29 -28 -28 -28 -28 -28 -27 -26 -26 -26 -26 -26 -25 -24 -24 -25 -24 -24 -23 -22 -22 -22
-26 -26 -26 -26 -26 -27 -27 -27 -28 -30 -31 -32 -32 -31 -31 -30 -30 -30 -30 -29 -28 -28 -28 -28 -28 -28 -28 -27 -27 -26 -26 -26 -26 -26 -26 -25 -25 -25 -24 -24 -23 -22 -22 -22
-26 -26 -26 -26 -26 -27 -27 -27 -28 -30 -32 -32 -31 -31 -30 -30 -30 -30 -30 -29 -28 -28 -28 -28 -28 -28 -28 -27 -27 -26 -26 -25 -25 -25 -26 -25 -26 -25 -24 -24 -22 -22 -23 -22
-26 -26 -27 -27 -27 -27 -28 -27 -27 -28 -31 -32 -31 -31 -30 -30 -30 -30 -30 -29 -29 -29 -29 -28 -28 -27 -27 -27 -26 -25 -25 -25 -25 -25 -26 -25 -25 -25 -24 -24 -23 -23 -23 -23
-27 -26 -27 -27 -27 -27 -27 -27 -27 -28 -29 -30 -30 -30 -30 -30 -30 -30 -30 -29 -29 -29 -28 -28 -28 -27 -27 -26 -26 -25 -25 -25 -26 -26 -26 -25 -25 -24 -24 -23 -23 -23 -23 -23
-27 -27 -27 -27 -27 -27 -27 -27 -28 -28 -29 -30 -30 -30 -30 -30 -30 -30 -30 -29 -28 -29 -28 -28 -28 -27 -27 -26 -26 -25 -25 -25 -25 -25 -25 -25 -25 -24 -24 -24 -23 -23 -23 -23
-27 -27 -27 -27 -27 -27 -27 -27 -27 -28 -29 -29 -30 -30 -30 -30 -30 -29 -29 -28 -28 -28 -28 -28 -27 -27 -27 -26 -26 -25 -25 -25 -25 -25 -24 -24 -24 -23 -23 -24 -23 -24 -23 -23
-27 -28 -27 -28 -28 -27 -27 -27 -27 -28 -28 -29 -29 -29 -29 -29 -29 -29 -28 -28 -28 -28 -28 -28 -27 -27 -26 -26 -26 -26 -25 -24 -24 -24 -24 -24 -24 -24 -24 -24 -24 -24 -23 -23
-28 -27 -28 -28 -28 -28 -28 -27 -27 -28 -28 -29 -29 -28 -29 -29 -29 -28 -28 -28 -28 -28 -27 -27 -27 -26 -26 -26 -26 -25 -25 -24 -25 -24 -24 -24 -24 -24 -24 -24 -24 -24 -24 -23
-28 -28 -28 -28 -28 -28 -28 -28 -28 -28 -28 -28 -28 -28 -28 -28 -28 -28 -28 -28 -27 -27 -26 -27 -26 -26 -25 -25 -25 -25 -24 -24 -24 -24 -24 -24 -24 -24 -24 -24 -24 -23 -24 -23
-28 -28 -28 -29 -29 -28 -28 -28 -28 -28 -28 -28 -28 -28 -28 -28 -28 -28 -28 -27 -27 -27 -27 -26 -26 -25 -25 -25 -24 -25 -24 -24 -24 -24 -24 -24 -24 -24 -24 -23 -23 -23 -23 -23
-28 -29 -29 -29 -28 -29 -29 -28 -28 -28 -28 -28 -28 -27 -27 -27 -27 -27 -27 -27 -27 -26 -26 -25 -25 -25 -25 -25 -24 -24 -24 -23 -23 -23 -23 -23 -23 -23 -23 -23 -23 -23 -23 -23
-29 -29 -29 -28 -29 -29 -29 -28 -28 -28 -28 -27 -27 -27 -27 -27 -27 -27 -27 -27 -27 -26 -26 -25 -25 -25 -24 -24 -24 -24 -24 -24 -24 -24 -24 -23 -23 -23 -23 -23 -23 -23 -23 -22
-29 -29 -28 -28 -29 -29 -28 -28 -28 -27 -27 -27 -27 -27 -27 -27 -27 -27 -26 -26 -26 -26 -26 -25 -26 -25 -25 -25 -24 -24 -24 -24 -24 -24 -24 -24 -23 -23 -23 -23 -22 -23 -22 -22
-29 -28 -28 -28 -29 -29 -28 -28 -28 -27 -27 -27 -27 -27 -27 -26 -26 -26 -26 -26 -26 -26 -26 -26 -26 -25 -25 -25 -25 -24 -24 -24 -24 -24 -24 -24 -24 -23 -23 -22 -22 -22 -22 -22
-28 -28 -28 -28 -28 -28 -28 -27 -26 -27 -28 -28 -27 -27 -26 -26 -26 -26 -26 -26 -26 -26 -26 -26 -26 -25 -25 -25 -25 -25 -25 -25 -25 -25 -25 -24 -24 -24 -24 -23 -23 -22 -22 -22
-28 -28 -28 -29 -28 -28 -28 -27 -28 -28 -28 -27 -27 -26 -27 -26 -26 -26 -26 -26 -26 -26 -26 -27 -26 -26 -26 -26 -26 -26 -26 -26 -26 -26 -26 -25 -25 -25 -24 -24 -24 -23 -23 -22
-28 -28 -28 -28 -28 -28 -28 -28 -28 -28 -27 -27 -27 -26 -26 -26 -26 -26 -26 -26 -26 -26 -26 -26 -27 -27 -27 -27 -27 -27 -26 -27 -26 -26 -26 -26 -26 -25 -25 -25 -25 -24 -24 -23
-28 -28 -27 -28 -28 -28 -28 -28 -28 -27 -27 -27 -26 -26 -26 -26 -26 -26 -26 -26 -26 -27 -27 -27 -26 -27 -27 -27 -27 -27 -27 -27 -27 -27 -27 -27 -26 -26 -26 -25 -25 -25 -25 -25
-28 -28 -28 -28 -28 -28 -28 -28 -28 -27 -27 -27 -27 -27 -27 -27 -27 -27 -27 -27 -27 -27 -26 -26 -27 -27 -27 -27 -27 -27 -27 -27 -26 -26 -26 -26 -26 -26 -26 -25 -25 -25 -25 -25

GFSNW_500_temp_117.txt.gz
Temp
-22 -22 -22 -23 -23 -23 -23 -23 -23 -23 -23 -23 -23 -23 -24 -25 -25 -26 -26 -27 -27 -27 -27 -27 -27 -27 -27 -27 -26 -26 -25 -24 -24 -24 -23 -22 -22 -22 -22 -22 -22 -21 -21 -20
-22 -23 -23 -23 -23 -23 -23 -23 -23 -24 -24 -24 -24 -24 -25 -25 -26 -26 -27 -28 -28 -28 -28 -28 -27 -27 -27 -27 -27 -26 -26 -25 -25 -25 -24 -24 -23 -23 -22 -22 -22 -22 -22 -20
-23 -23 -23 -23 -24 -24 -24 -24 -24 -24 -24 -24 -25 -25 -26 -26 -26 -27 -28 -28 -29 -29 -29 -29 -28 -28 -27 -27 -27 -27 -27 -26 -25 -25 -24 -24 -23 -23 -23 -23 -23 -23 -22 -21
-24 -24 -23 -24 -24 -24 -24 -24 -24 -25 -25 -25 -25 -26 -26 -26 -27 -28 -28 -29 -29 -29 -29 -29 -29 -28 -28 -28 -29 -28 -28 -27 -27 -26 -26 -25 -24 -24 -23 -23 -23 -23 -22 -22
-24 -24 -24 -24 -24 -25 -25 -25 -25 -25 -25 -25 -26 -26 -26 -27 -28 -29 -30 -30 -30 -30 -30 -29 -28 -28 -28 -29 -29 -29 -29 -28 -27 -27 -26 -26 -25 -25 -24 -24 -24 -23 -23 -23
-24 -24 -24 -24 -25 -25 -25 -25 -25 -25 -26 -26 -26 -26 -27 -29 -30 -31 -30 -30 -30 -30 -29 -29 -29 -29 -29 -29 -29 -29 -28 -28 -28 -27 -27 -26 -26 -25 -25 -25 -25 -25 -24 -23
-24 -25 -24 -25 -25 -25 -25 -25 -25 -26 -26 -26 -27 -27 -28 -30 -31 -30 -30 -30 -30 -30 -29 -29 -28 -28 -28 -29 -29 -29 -29 -28 -28 -27 -27 -26 -26 -25 -25 -25 -25 -25 -24 -23
-25 -25 -25 -25 -25 -25 -25 -26 -26 -26 -26 -27 -27 -27 -29 -31 -31 -31 -31 -30 -30 -30 -29 -29 -29 -28 -28 -28 -28 -28 -28 -28 -27 -27 -27 -26 -26 -26 -25 -25 -25 -24 -24 -24
-25 -25 -25 -25 -25 -25 -26 -26 -26 -27 -27 -27 -27 -27 -30 -31 -31 -31 -30 -30 -30 -30 -29 -29 -28 -28 -28 -28 -28 -28 -27 -27 -27 -27 -26 -26 -26 -26 -25 -25 -24 -24 -24 -23
-26 -26 -26 -25 -25 -26 -26 -26 -26 -27 -27 -27 -27 -28 -30 -31 -31 -31 -30 -30 -30 -30 -29 -29 -28 -28 -28 -28 -27 -27 -27 -27 -27 -26 -26 -26 -26 -26 -25 -24 -24 -24 -24 -22
-26 -26 -26 -26 -26 -26 -26 -26 -26 -27 -27 -27 -28 -28 -30 -31 -31 -30 -30 -30 -30 -29 -29 -29 -28 -28 -28 -27 -27 -26 -27 -27 -26 -26 -26 -26 -26 -26 -25 -25 -24 -24 -23 -23
-26 -26 -26 -26 -26 -26 -26 -26 -27 -27 -27 -28 -28 -28 -29 -30 -30 -30 -30 -30 -30 -30 -29 -29 -29 -28 -28 -27 -26 -26 -26 -26 -26 -27 -26 -26 -26 -26 -25 -25 -24 -24 -24 -24
-27 -27 -27 -27 -27 -26 -26 -27 -27 -27 -28 -28 -28 -28 -29 -30 -30 -30 -30 -30 -30 -29 -29 -29 -28 -28 -28 -27 -27 -26 -26 -26 -26 -26 -26 -26 -26 -26 -25 -25 -24 -24 -24 -24
-27 -27 -27 -27 -27 -27 -26 -27 -28 -27 -28 -28 -28 -29 -29 -30 -30 -30 -30 -29 -29 -29 -29 -29 -28 -28 -27 -27 -26 -26 -26 -25 -25 -25 -25 -25 -25 -25 -24 -24 -24 -24 -24 -24
-27 -27 -27 -27 -27 -27 -27 -27 -28 -27 -28 -28 -28 -28 -29 -29 -29 -29 -29 -29 -29 -29 -29 -28 -28 -27 -27 -27 -26 -26 -26 -25 -25 -25 -25 -24 -24 -24 -24 -24 -24 -24 -24 -24
-28 -28 -28 -28 -27 -27 -27 -28 -28 -27 -28 -28 -28 -28 -29 -29 -29 -29 -29 -29 -28 -29 -28 -28 -28 -27 -26 -26 -26 -26 -25 -25 -25 -25 -25 -24 -24 -24 -24 -24 -24 -24 -24 -24
-28 -28 -28 -28 -27 -27 -27 -28 -28 -28 -28 -28 -28 -29 -29 -29 -29 -29 -29 -28 -28 -28 -28 -28 -27 -26 -26 -26 -25 -25 -25 -25 -25 -24 -24 -25 -24 -24 -24 -24 -24 -24 -24 -24
-29 -28 -28 -28 -28 -27 -29 -28 -28 -28 -28 -28 -28 -28 -29 -29 -29 -29 -29 -28 -28 -28 -28 -28 -27 -26 -25 -25 -25 -25 -25 -25 -24 -24 -24 -24 -24 -24 -24 -24 -24 -24 -24 -24
-29 -29 -28 -28 -28 -29 -29 -29 -29 -28 -28 -28 -28 -28 -28 -29 -29 -28 -28 -28 -28 -28 -27 -27 -26 -26 -26 -25 -25 -25 -25 -25 -24 -24 -24 -24 -24 -24 -24 -24 -24 -24 -24 -24
-29 -29 -28 -28 -28 -29 -29 -29 -29 -28 -28 -28 -28 -28 -28 -28 -28 -27 -28 -28 -28 -28 -28 -27 -27 -26 -26 -25 -25 -25 -25 -25 -24 -24 -24 -24 -24 -24 -24 -24 -24 -24 -24 -24
-29 -29 -29 -29 -29 -29 -29 -29 -29 -29 -28 -28 -28 -28 -28 -28 -28 -28 -28 -28 -28 -27 -27 -27 -27 -26 -26 -26 -25 -26 -25 -25 -25 -25 -25 -25 -25 -25 -25 -25 -24 -24 -24 -24
-29 -29 -29 -29 -29 -30 -29 -29 -28 -29 -29 -29 -28 -28 -28 -28 -28 -28 -28 -28 -27 -27 -27 -27 -27 -27 -26 -26 -26 -26 -26 -26 -26 -26 -26 -26 -26 -25 -25 -25 -25 -24 -24 -24
-31 -30 -30 -29 -29 -29 -28 -28 -29 -29 -30 -29 -28 -28 -28 -28 -28 -27 -27 -27 -27 -27 -27 -27 -26 -26 -26 -26 -26 -26 -26 -26 -25 -25 -25 -25 -25 -25 -25 -25 -25 -24 -24 -24
-30 -30 -30 -30 -29 -29 -29 -29 -29 -29 -29 -29 -28 -28 -27 -27 -27 -27 -27 -27 -27 -27 -27 -27 -27 -26 -26 -26 -26 -26 -26 -26 -26 -26 -26 -26 -26 -26 -26 -26 -26 -25 -25 -24
-31 -30 -30 -29 -29 -29 -29 -29 -29 -29 -29 -28 -28 -27 -27 -27 -27 -27 -27 -27 -27 -27 -27 -27 -27 -27 -26 -26 -26 -26 -26 -26 -26 -27 -27 -27 -27 -27 -27 -27 -27 -26 -26 -26
-30 -30 -29 -29 -29 -29 -29 -29 -29 -29 -28 -28 -28 -27 -27 -27 -27 -27 -27 -27 -27 -27 -27 -27 -27 -26 -26 -26 -26 -26 -26 -27 -27 -27 -27 -27 -27 -27 -27 -27 -27 -27 -27 -27
-29 -29 -29 -29 -29 -29 -29 -29 -29 -29 -28 -28 -28 -27 -27 -27 -27 -27 -27 -27 -27 -27 -27 -27 -27 -26 -26 -26 -26 -26 -27 -27 -27 -27 -27 -27 -27 -27 -26 -26 -26 -26 -26 -26

GFSNW_500_temp_120.txt.gz
Temp
-22 -21 -22 -22 -22 -22 -22 -22 -23 -22 -22 -23 -23 -23 -23 -23 -23 -24 -25 -25 -25 -25 -25 -26 -27 -27 -28 -27 -27 -27 -27 -26 -26 -25 -23 -21 -21 -22 -22 -21 -21 -21 -21 -20
-22 -22 -22 -22 -22 -22 -23 -23 -23 -23 -23 -23 -24 -24 -24 -24 -24 -25 -25 -25 -26 -26 -27 -28 -28 -28 -29 -28 -27 -27 -27 -27 -27 -26 -25 -23 -23 -22 -22 -21 -21 -21 -22 -21
-23 -23 -23 -23 -23 -23 -23 -23 -23 -23 -23 -24 -24 -24 -24 -24 -25 -25 -25 -26 -27 -28 -28 -29 -29 -29 -29 -28 -28 -27 -27 -27 -27 -27 -25 -25 -24 -23 -23 -23 -23 -22 -22 -22
-23 -23 -23 -23 -23 -23 -23 -24 -24 -24 -24 -24 -24 -24 -24 -24 -25 -26 -26 -28 -30 -29 -29 -29 -29 -29 -28 -28 -28 -28 -28 -28 -28 -27 -26 -26 -24 -24 -23 -23 -23 -22 -22 -22
-23 -23 -23 -24 -24 -24 -24 -24 -24 -24 -24 -25 -25 -25 -25 -25 -26 -27 -29 -30 -29 -29 -29 -29 -29 -29 -28 -28 -28 -28 -28 -28 -28 -28 -27 -27 -25 -24 -24 -24 -23 -23 -24 -23
-24 -24 -24 -24 -24 -24 -24 -24 -24 -24 -24 -25 -25 -25 -25 -26 -27 -28 -30 -30 -30 -29 -29 -29 -29 -28 -28 -28 -28 -28 -28 -28 -28 -28 -29 -27 -26 -25 -25 -24 -24 -24 -24 -24
-24 -24 -24 -24 -24 -24 -24 -25 -25 -25 -25 -25 -25 -25 -26 -27 -27 -30 -30 -30 -30 -30 -29 -29 -29 -28 -28 -28 -28 -28 -28 -28 -28 -28 -28 -27 -26 -26 -26 -25 -25 -25 -24 -24
-24 -24 -24 -24 -25 -24 -25 -25 -25 -25 -25 -25 -25 -26 -27 -27 -28 -30 -30 -30 -30 -30 -29 -29 -29 -28 -28 -28 -28 -28 -28 -28 -28 -27 -27 -27 -27 -27 -26 -26 -25 -25 -24 -24
-25 -25 -25 -25 -25 -25 -25 -25 -25 -25 -25 -26 -26 -27 -27 -27 -29 -31 -30 -30 -30 -30 -29 -29 -28 -28 -28 -28 -27 -27 -27 -27 -27 -27 -27 -26 -26 -26 -26 -26 -25 -25 -24 -24
-25 -25 -25 -25 -25 -25 -25 -26 -26 -25 -25 -26 -26 -27 -27 -28 -30 -31 -30 -30 -30 -30 -29 -28 -28 -28 -28 -28 -27 -27 -27 -27 -26 -26 -27 -26 -26 -26 -26 -25 -25 -25 -25 -24
-26 -26 -26 -26 -26 -26 -26 -26 -26 -26 -26 -26 -26 -27 -28 -28 -30 -30 -30 -30 -30 -30 -29 -29 -28 -28 -28 -27 -27 -27 -27 -27 -27 -27 -27 -26 -26 -26 -26 -25 -25 -25 -24 -23
-26 -26 -26 -26 -26 -26 -26 -26 -26 -26 -26 -26 -27 -27 -28 -28 -29 -30 -30 -30 -30 -30 -29 -29 -29 -28 -28 -27 -27 -27 -27 -26 -27 -27 -27 -26 -26 -26 -25 -25 -25 -24 -23 -23
-26 -26 -26 -26 -26 -26 -26 -26 -26 -26 -26 -26 -27 -28 -28 -28 -29 -29 -29 -29 -29 -29 -29 -29 -28 -28 -27 -27 -27 -26 -26 -26 -26 -26 -26 -26 -25 -25 -25 -24 -24 -24 -24 -24
-27 -27 -27 -27 -27 -27 -27 -26 -26 -26 -26 -27 -27 -28 -28 -28 -29 -29 -29 -28 -29 -28 -28 -28 -28 -28 -27 -27 -26 -26 -26 -26 -25 -26 -25 -25 -25 -25 -25 -24 -24 -24 -24 -24
-27 -27 -27 -27 -27 -27 -27 -27 -26 -26 -27 -27 -27 -28 -28 -29 -29 -29 -28 -28 -29 -28 -28 -28 -28 -27 -27 -27 -26 -26 -26 -26 -25 -25 -25 -25 -24 -24 -24 -24 -24 -24 -24 -23
-27 -27 -27 -27 -27 -27 -27 -27 -26 -26 -27 -27 -27 -27 -28 -28 -29 -29 -28 -28 -28 -28 -28 -28 -27 -27 -27 -27 -26 -26 -26 -25 -25 -25 -25 -25 -24 -24 -24 -24 -25 -24 -24 -23
-28 -28 -28 -28 -27 -27 -27 -27 -26 -26 -27 -27 -28 -28 -28 -29 -29 -29 -29 -28 -28 -28 -28 -27 -27 -26 -26 -26 -26 -26 -25 -25 -25 -24 -24 -24 -24 -24 -24 -24 -24 -24 -24 -24
-28 -28 -28 -28 -28 -28 -28 -27 -27 -27 -27 -28 -28 -28 -28 -29 -29 -29 -29 -29 -28 -28 -28 -27 -26 -26 -26 -26 -26 -25 -25 -25 -25 -25 -24 -24 -24 -24 -24 -24 -24 -24 -24 -24
-29 -29 -28 -28 -28 -28 -28 -27 -27 -27 -27 -28 -28 -28 -28 -29 -29 -29 -29 -28 -28 -28 -27 -27 -26 -26 -26 -26 -26 -25 -25 -25 -24 -24 -24 -24 -24 -24 -24 -24 -24 -24 -24 -24
-29 -29 -29 -29 -29 -28 -28 -27 -27 -28 -28 -28 -28 -28 -28 -28 -28 -28 -28 -28 -28 -28 -28 -27 -26 -26 -26 -26 -25 -25 -25 -25 -25 -25 -24 -24 -24 -24 -24 -25 -25 -24 -24 -24
-29 -29 -29 -29 -29 -28 -28 -28 -28 -28 -28 -28 -28 -28 -28 -28 -28 -28 -28 -28 -28 -28 -27 -27 -27 -26 -26 -26 -26 -26 -26 -25 -25 -25 -25 -25 -25 -25 -25 -25 -25 -25 -25 -25
-30 -30 -29 -29 -29 -29 -28 -28 -28 -29 -29 -29 -28 -28 -28 -28 -28 -28 -28 -28 -28 -27 -27 -27 -27 -26 -26 -26 -26 -26 -26 -26 -26 -26 -26 -26 -26 -26 -25 -25 -25 -25 -25 -24
-31 -30 -30 -29 -29 -29 -28 -28 -29 -29 -29 -28 -28 -28 -28 -28 -28 -28 -28 -28 -27 -27 -27 -27 -27 -26 -26 -26 -26 -26 -26 -26 -26 -26 -26 -26 -26 -26 -26 -26 -26 -26 -25 -25
-31 -31 -30 -30 -29 -28 -28 -29 -29 -29 -29 -29 -28 -28 -28 -28 -28 -28 -27 -27 -27 -27 -27 -27 -26 -26 -26 -26 -26 -26 -26 -26 -26 -26 -26 -26 -26 -26 -26 -27 -27 -27 -27 -26
-31 -30 -30 -29 -29 -29 -29 -29 -29 -29 -29 -29 -29 -28 -28 -28 -27 -27 -27 -27 -27 -27 -27 -26 -26 -26 -26 -26 -26 -26 -26 -26 -26 -26 -26 -27 -27 -27 -27 -27 -27 -27 -27 -27
-31 -31 -30 -29 -29 -29 -29 -29 -29 -29 -29 -29 -29 -28 -28 -27 -27 -27 -27 -27 -27 -27 -26 -26 -26 -27 -27 -26 -26 -26 -26 -26 -26 -26 -26 -26 -26 -26 -26 -26 -27 -27 -27 -27
-30 -30 -30 -30 -29 -29 -29 -29 -29 -29 -29 -29 -28 -28 -28 -27 -27 -27 -27 -27 -26 -26 -26 -27 -27 -27 -27 -27 -27 -26 -26 -26 -26 -27 -27 -27 -26 -26 -26 -26 -26 -26 -26 -26

GFSNW_500_temp_123.txt.gz
Temp
-19 -19 -20 -22 -23 -22 -22 -21 -21 -21 -21 -21 -22 -22 -22 -22 -22 -22 -22 -23 -23 -24 -24 -25 -25 -26 -28 -29 -27 -27 -28 -28 -27 -27 -25 -24 -22 -22 -22 -22 -21 -21 -21 -20
-19 -21 -23 -23 -22 -23 -22 -22 -22 -22 -22 -22 -22 -22 -22 -23 -23 -23 -23 -24 -24 -25 -25 -26 -27 -28 -29 -28 -28 -28 -27 -27 -27 -26 -26 -25 -24 -23 -22 -21 -21 -21 -20 -20
-21 -24 -24 -23 -23 -23 -23 -23 -23 -23 -23 -23 -23 -23 -23 -23 -23 -23 -24 -25 -25 -26 -28 -29 -28 -28 -29 -29 -28 -28 -28 -27 -27 -27 -25 -25 -24 -24 -24 -23 -21 -20 -20 -20
-24 -24 -23 -23 -23 -23 -23 -23 -23 -23 -23 -23 -23 -23 -23 -23 -23 -24 -25 -25 -26 -29 -29 -28 -28 -29 -28 -28 -28 -28 -28 -27 -27 -28 -26 -27 -27 -26 -25 -24 -23 -22 -21 -21
-24 -24 -24 -24 -23 -23 -23 -23 -23 -23 -23 -23 -24 -23 -23 -24 -24 -25 -25 -26 -29 -29 -29 -29 -29 -29 -28 -28 -28 -28 -28 -28 -27 -28 -28 -28 -27 -25 -26 -24 -24 -23 -23 -22
-25 -25 -24 -24 -24 -24 -24 -24 -24 -24 -24 -24 -24 -24 -24 -24 -25 -25 -26 -28 -29 -29 -29 -29 -29 -28 -28 -28 -28 -28 -27 -27 -27 -27 -28 -28 -27 -25 -25 -25 -24 -23 -23 -22
-25 -24 -24 -24 -24 -24 -24 -24 -24 -24 -24 -24 -24 -24 -24 -24 -25 -26 -27 -30 -30 -29 -29 -29 -28 -28 -28 -28 -28 -28 -27 -27 -27 -27 -27 -27 -27 -27 -27 -27 -25 -24 -24 -24
-25 -25 -24 -24 -24 -24 -24 -24 -24 -24 -24 -24 -24 -24 -24 -25 -26 -26 -28 -30 -30 -30 -29 -29 -28 -28 -28 -28 -28 -27 -27 -27 -27 -27 -27 -27 -27 -27 -26 -26 -25 -25 -25 -24
-25 -25 -25 -25 -24 -24 -25 -25 -25 -25 -25 -25 -25 -24 -25 -26 -26 -27 -29 -30 -30 -30 -29 -28 -28 -28 -28 -27 -27 -27 -27 -27 -27 -27 -26 -26 -27 -26 -26 -26 -25 -25 -24 -24
-25 -25 -25 -25 -25 -25 -25 -25 -25 -25 -25 -25 -25 -25 -25 -26 -26 -27 -29 -30 -30 -29 -29 -29 -28 -28 -28 -27 -27 -27 -26 -26 -26 -26 -26 -26 -26 -26 -26 -26 -26 -25 -24 -24
-25 -26 -25 -25 -25 -25 -25 -25 -25 -25 -25 -25 -25 -25 -26 -26 -27 -28 -29 -30 -30 -29 -29 -28 -28 -28 -28 -27 -27 -27 -26 -26 -26 -26 -26 -25 -26 -26 -25 -25 -25 -25 -25 -24
-26 -26 -26 -25 -25 -25 -26 -26 -26 -25 -25 -25 -25 -26 -26 -27 -27 -28 -28 -29 -29 -29 -28 -28 -28 -28 -28 -27 -27 -27 -26 -27 -26 -26 -26 -26 -26 -26 -25 -25 -24 -24 -24 -24
-26 -26 -26 -26 -26 -26 -26 -26 -26 -26 -26 -25 -26 -26 -26 -27 -27 -27 -28 -28 -28 -28 -28 -28 -28 -28 -27 -27 -27 -27 -26 -26 -26 -26 -26 -26 -26 -26 -24 -24 -24 -24 -24 -24
-26 -26 -26 -26 -26 -26 -26 -26 -26 -26 -26 -25 -26 -26 -26 -27 -27 -27 -28 -28 -28 -28 -28 -28 -28 -28 -27 -27 -27 -26 -26 -26 -26 -26 -25 -25 -25 -25 -25 -24 -24 -24 -24 -24
-26 -26 -26 -26 -26 -26 -26 -26 -26 -26 -26 -26 -26 -26 -27 -27 -27 -28 -28 -28 -28 -27 -27 -27 -27 -27 -27 -27 -26 -26 -26 -26 -25 -25 -25 -25 -25 -24 -24 -24 -24 -24 -24 -24
-27 -27 -27 -27 -27 -27 -27 -26 -26 -26 -26 -26 -26 -26 -27 -27 -27 -28 -28 -28 -28 -27 -27 -27 -27 -27 -27 -27 -26 -26 -26 -25 -25 -25 -25 -24 -24 -24 -24 -24 -24 -24 -24 -24
-27 -27 -27 -27 -27 -27 -27 -27 -27 -27 -26 -26 -26 -26 -27 -27 -28 -28 -29 -28 -28 -27 -28 -27 -27 -26 -26 -26 -26 -26 -26 -25 -25 -25 -24 -24 -24 -24 -24 -24 -24 -24 -24 -24
-27 -27 -27 -27 -27 -27 -27 -27 -27 -27 -27 -27 -27 -27 -27 -28 -28 -29 -29 -28 -28 -28 -28 -27 -26 -26 -26 -26 -26 -26 -25 -25 -25 -25 -24 -24 -24 -24 -24 -24 -24 -24 -24 -24
-28 -28 -28 -27 -27 -28 -28 -27 -27 -27 -27 -27 -27 -27 -27 -28 -29 -29 -29 -28 -28 -28 -27 -27 -26 -26 -25 -25 -26 -25 -25 -25 -25 -24 -24 -24 -24 -24 -24 -24 -24 -24 -24 -24
-28 -28 -28 -28 -28 -28 -28 -28 -27 -27 -27 -27 -27 -27 -27 -28 -28 -28 -28 -28 -28 -28 -27 -27 -26 -26 -26 -26 -25 -25 -25 -25 -25 -25 -25 -25 -25 -25 -25 -25 -25 -25 -25 -25
-28 -28 -28 -29 -29 -28 -28 -28 -28 -27 -27 -28 -27 -27 -27 -28 -28 -27 -27 -28 -28 -28 -27 -27 -27 -26 -25 -26 -25 -25 -25 -25 -25 -25 -25 -25 -25 -25 -25 -25 -25 -25 -25 -24
-29 -29 -29 -29 -29 -29 -28 -28 -28 -27 -28 -28 -27 -27 -28 -28 -28 -27 -27 -27 -28 -27 -27 -27 -27 -27 -26 -26 -26 -26 -26 -26 -26 -26 -26 -26 -25 -25 -25 -25 -25 -25 -25 -25
-30 -30 -30 -29 -29 -29 -29 -28 -28 -28 -29 -28 -28 -28 -28 -28 -28 -28 -28 -28 -28 -28 -27 -27 -27 -26 -26 -26 -26 -26 -26 -26 -26 -26 -26 -26 -26 -26 -26 -26 -26 -26 -26 -26
-31 -30 -30 -30 -30 -29 -29 -28 -29 -29 -29 -29 -29 -29 -28 -28 -28 -28 -28 -28 -28 -27 -27 -27 -27 -26 -26 -26 -26 -26 -26 -26 -26 -26 -26 -26 -26 -26 -26 -26 -26 -26 -27 -27
-32 -31 -31 -30 -30 -29 -29 -29 -29 -29 -29 -29 -29 -29 -28 -28 -28 -28 -28 -28 -27 -27 -27 -27 -26 -26 -26 -26 -26 -26 -26 -26 -26 -26 -26 -26 -26 -26 -26 -26 -26 -26 -26 -26
-32 -32 -32 -30 -30 -30 -29 -29 -29 -29 -29 -29 -29 -29 -29 -29 -28 -28 -27 -27 -27 -28 -27 -26 -26 -26 -26 -26 -26 -27 -27 -26 -26 -26 -26 -26 -26 -26 -26 -26 -26 -26 -26 -26
-32 -31 -31 -30 -30 -30 -29 -29 -29 -29 -29 -29 -29 -29 -29 -29 -28 -28 -27 -27 -27 -27 -26 -26 -27 -26 -26 -27 -27 -26 -26 -26 -26 -26 -26 -27 -27 -26 -26 -26 -25 -25 -25 -25